Monett, MO

3:56 PM CDT on May 23, 2018 (GMT -0500)
Monett

Weather History for KHFJ - April, 2013

Change the Weather History Date:

Monday, April 29, 2013

  Actual Average (KJLN) Record (KJLN)
Temperature  
Mean Temperature 66 °F -  
Max Temperature 82 °F 74 °F 92 °F (1962)
Min Temperature 51 °F 50 °F 36 °F (1969)
Cooling Degree Days 2    
Growing Degree Days 16 (Base 50)    
Moisture  
Dew Point 54 °F    
Average Humidity 64    
Maximum Humidity 88    
Minimum Humidity 37    
Precipitation  
Precipitation 0.00 in - - ()
Sea Level Pressure  
Sea Level Pressure 29.84 in    
Wind  
Wind Speed 10 mph (South)    
Max Wind Speed 20 mph    
Max Gust Speed 25 mph    
Visibility 10 miles    
Events      
Averages and records for this station are not official NWS values.
T = Trace of Precipitation, MM = Missing Value Source: NWS Daily Summary

Daily Weather History Graph

Daily Weather History Graph

Search for Another Location

Airport or City:

Astronomy

Apr. 29, 2013 Rise Set
Actual Time 6:23 AM CDT 8:03 PM CDT
Civil Twilight 5:56 AM CDT 8:31 PM CDT
Nautical Twilight 5:22 AM CDT 9:04 PM CDT
Astronomical Twilight 4:47 AM CDT 9:40 PM CDT
Moon No Moon Rise 9:47 AM CDT (4/29)
Length of Visible Light 14h 35m
Length of Day
13h 39m
Waning Gibbous, 80% of the Moon is Illuminated
Apr 29
Waning Gibbous
May 2
Last Quarter
May 9
New
May 17
First Quarter
May 24
Full

Hourly Weather History & Observations

Time (CDT) Temp. Heat Index Dew Point Humidity Pressure Visibility Wind Dir Wind Speed Gust Speed Precip Events Conditions
12:15 AM 55.4 °F - 46.4 °F 72% 29.88 in 10.0 mi SSE 5.8 mph - N/A   Clear
12:35 AM 55.4 °F - 48.2 °F 77% 29.88 in 10.0 mi SSE 6.9 mph - N/A   Clear
12:55 AM 55.4 °F - 50.0 °F 82% 29.88 in 10.0 mi SSE 8.1 mph - N/A   Clear
1:15 AM 55.4 °F - 50.0 °F 82% 29.88 in 10.0 mi SSE 6.9 mph - N/A   Clear
1:35 AM 55.4 °F - 50.0 °F 82% 29.88 in 10.0 mi SSE 6.9 mph - N/A   Clear
1:55 AM 55.4 °F - 50.0 °F 82% 29.88 in 10.0 mi SSE 8.1 mph - N/A   Clear
2:15 AM 55.4 °F - 50.0 °F 82% 29.87 in 10.0 mi SSE 9.2 mph - N/A   Clear
2:35 AM 55.4 °F - 50.0 °F 82% 29.86 in 10.0 mi SSE 8.1 mph - N/A   Clear
2:55 AM 55.4 °F - 50.0 °F 82% 29.86 in 10.0 mi South 5.8 mph - N/A   Clear
3:15 AM 55.4 °F - 50.0 °F 82% 29.87 in 10.0 mi South 6.9 mph - N/A   Clear
3:35 AM 55.4 °F - 50.0 °F 82% 29.88 in 10.0 mi SSE 5.8 mph - N/A   Clear
3:55 AM 53.6 °F - 50.0 °F 88% 29.88 in 10.0 mi SSE 5.8 mph - N/A   Clear
4:15 AM 53.6 °F - 50.0 °F 88% 29.88 in 10.0 mi SE 4.6 mph - N/A   Clear
4:35 AM 53.6 °F - 50.0 °F 88% 29.88 in 10.0 mi SE 4.6 mph - N/A   Clear
4:55 AM 51.8 °F - 48.2 °F 88% 29.88 in 10.0 mi SSE 5.8 mph - N/A   Clear
5:15 AM 51.8 °F - 48.2 °F 88% 29.89 in 10.0 mi SSE 6.9 mph - N/A   Clear
5:35 AM 53.6 °F - 50.0 °F 88% 29.88 in 10.0 mi South 8.1 mph - N/A   Clear
5:55 AM 55.4 °F - 50.0 °F 82% 29.89 in 10.0 mi South 8.1 mph - N/A   Clear
6:15 AM 55.4 °F - 51.8 °F 88% 29.89 in 10.0 mi South 6.9 mph - N/A   Clear
6:35 AM 55.4 °F - 51.8 °F 88% 29.89 in 10.0 mi SSE 5.8 mph - N/A   Clear
6:55 AM 55.4 °F - 51.8 °F 88% 29.90 in 10.0 mi SSE 6.9 mph - N/A   Clear
7:15 AM 59.0 °F - 51.8 °F 77% 29.90 in 10.0 mi SSE 8.1 mph - N/A   Clear
7:35 AM 60.8 °F - 53.6 °F 77% 29.91 in 10.0 mi South 6.9 mph - N/A   Clear
7:55 AM 62.6 °F - 55.4 °F 77% 29.91 in 10.0 mi South 8.1 mph - N/A   Clear
8:15 AM 64.4 °F - 55.4 °F 73% 29.91 in 10.0 mi South 12.7 mph 19.6 mph N/A   Clear
8:35 AM 64.4 °F - 55.4 °F 73% 29.91 in 10.0 mi South 13.8 mph 20.7 mph N/A   Clear
8:55 AM 66.2 °F - 57.2 °F 73% 29.90 in 10.0 mi South 16.1 mph - N/A   Clear
9:15 AM 68.0 °F - 59.0 °F 73% 29.90 in 10.0 mi South 12.7 mph - N/A   Clear
9:35 AM 68.0 °F - 59.0 °F 73% 29.89 in 10.0 mi SSW 16.1 mph 23.0 mph N/A   Clear
9:55 AM 69.8 °F - 59.0 °F 68% 29.88 in 10.0 mi SSW 12.7 mph - N/A   Clear
10:15 AM 71.6 °F - 59.0 °F 64% 29.88 in 10.0 mi SSW 19.6 mph - N/A   Clear
10:35 AM 71.6 °F - 59.0 °F 64% 29.88 in 10.0 mi SSW 12.7 mph 25.3 mph N/A   Clear
10:55 AM 73.4 °F - 60.8 °F 65% 29.88 in 10.0 mi SSW 16.1 mph 20.7 mph N/A   Clear
11:15 AM 75.2 °F - 60.8 °F 61% 29.87 in 10.0 mi SSW 16.1 mph - N/A   Clear
11:35 AM 77.0 °F - 60.8 °F 57% 29.87 in 10.0 mi SSW 11.5 mph 20.7 mph N/A   Clear
11:55 AM 77.0 °F - 60.8 °F 57% 29.86 in 10.0 mi SSW 12.7 mph 18.4 mph N/A   Clear
12:15 PM 78.8 °F - 60.8 °F 54% 29.86 in 10.0 mi SSW 13.8 mph 20.7 mph N/A   Clear
12:35 PM 78.8 °F - 59.0 °F 51% 29.85 in 10.0 mi SSW 15.0 mph 23.0 mph N/A   Clear
12:55 PM 78.8 °F - 60.8 °F 54% 29.84 in 10.0 mi SSW 13.8 mph 21.9 mph N/A   Clear
1:15 PM 78.8 °F - 59.0 °F 51% 29.83 in 10.0 mi SSW 16.1 mph - N/A   Clear
1:35 PM 80.6 °F 81.1 °F 59.0 °F 48% 29.83 in 10.0 mi SSW 15.0 mph - N/A   Clear
1:55 PM 80.6 °F 81.1 °F 59.0 °F 48% 29.82 in 10.0 mi SSW 16.1 mph 23.0 mph N/A   Clear
2:15 PM 80.6 °F 81.1 °F 59.0 °F 48% 29.82 in 10.0 mi SW 17.3 mph 25.3 mph N/A   Clear
2:35 PM 80.6 °F 80.8 °F 57.2 °F 45% 29.81 in 10.0 mi SSW 12.7 mph 23.0 mph N/A   Clear
2:55 PM 80.6 °F 81.1 °F 59.0 °F 48% 29.81 in 10.0 mi SSW 17.3 mph 20.7 mph N/A   Clear
3:15 PM 80.6 °F 80.5 °F 55.4 °F 42% 29.80 in 10.0 mi SSW 16.1 mph 19.6 mph N/A   Clear
3:35 PM 80.6 °F 80.3 °F 53.6 °F 39% 29.79 in 10.0 mi SSW 16.1 mph - N/A   Clear
3:55 PM 80.6 °F 80.3 °F 53.6 °F 39% 29.78 in 10.0 mi SSW 16.1 mph 20.7 mph N/A   Clear
4:15 PM 82.4 °F 81.4 °F 53.6 °F 37% 29.78 in 10.0 mi SSW 17.3 mph - N/A   Clear
4:35 PM 82.4 °F 81.4 °F 53.6 °F 37% 29.78 in 10.0 mi SSW 15.0 mph 21.9 mph N/A   Clear
4:55 PM 80.6 °F 80.3 °F 53.6 °F 39% 29.78 in 10.0 mi SSW 13.8 mph - N/A   Clear
5:15 PM 80.6 °F 80.5 °F 55.4 °F 42% 29.78 in 10.0 mi SSW 11.5 mph - N/A   Clear
5:35 PM 80.6 °F 80.5 °F 55.4 °F 42% 29.77 in 10.0 mi South 16.1 mph 21.9 mph N/A   Clear
5:55 PM 78.8 °F - 55.4 °F 44% 29.78 in 10.0 mi South 16.1 mph - N/A   Clear
6:15 PM 78.8 °F - 55.4 °F 44% 29.77 in 10.0 mi South 15.0 mph 19.6 mph N/A   Clear
6:35 PM 78.8 °F - 55.4 °F 44% 29.77 in 10.0 mi SSW 10.4 mph - N/A   Clear
6:55 PM 77.0 °F - 57.2 °F 50% 29.77 in 10.0 mi South 11.5 mph - N/A   Clear
7:15 PM 77.0 °F - 57.2 °F 50% 29.77 in 10.0 mi South 10.4 mph - N/A   Clear
7:35 PM 75.2 °F - 55.4 °F 50% 29.77 in 10.0 mi South 10.4 mph - N/A   Clear
7:55 PM 73.4 °F - 55.4 °F 53% 29.77 in 10.0 mi South 9.2 mph - N/A   Clear
8:15 PM 73.4 °F - 53.6 °F 50% 29.78 in 10.0 mi South 6.9 mph - N/A   Clear
8:35 PM 69.8 °F - 53.6 °F 56% 29.78 in 10.0 mi South 8.1 mph - N/A   Clear
8:55 PM 69.8 °F - 53.6 °F 56% 29.79 in 10.0 mi SSE 8.1 mph - N/A   Clear
9:15 PM 69.8 °F - 51.8 °F 53% 29.79 in 10.0 mi SSE 8.1 mph - N/A   Clear
9:35 PM 69.8 °F - 53.6 °F 56% 29.80 in 10.0 mi South 10.4 mph - N/A   Clear
9:55 PM 69.8 °F - 53.6 °F 56% 29.80 in 10.0 mi South 11.5 mph - N/A   Clear
10:15 PM 68.0 °F - 51.8 °F 56% 29.80 in 10.0 mi SSE 9.2 mph - N/A   Clear
10:35 PM 68.0 °F - 51.8 °F 56% 29.81 in 10.0 mi SSE 10.4 mph - N/A   Clear
10:55 PM 66.2 °F - 51.8 °F 60% 29.81 in 10.0 mi SSE 8.1 mph - N/A   Clear
11:15 PM 64.4 °F - 51.8 °F 64% 29.81 in 10.0 mi SSE 9.2 mph - N/A   Clear
11:35 PM 64.4 °F - 51.8 °F 64% 29.81 in 10.0 mi SSE 9.2 mph - N/A   Clear
11:55 PM 64.4 °F - 51.8 °F 64% 29.81 in 10.0 mi SSE 8.1 mph - N/A   Clear